DLH401 KJFK-EDDF

Flight info

Callsign DLH401
Flight time N/A
Altitude 37000
Route MERIT DCT HFD DCT PUT DCT WITCH DCT ALLEX DCT CADIL DCT ALLRY/M082F380 DCT 51N050W 53N040W 54N030W 54N020W DCT DOGAL DCT BEXET/N0476F390 DCT MORAG DCT NUCHU L607 KONAN UL607 SPI T180 NIVNU T847 IMCOM IMCOM1C
Aircraft A343/H-SDE2E3FGHIJ4J5M1RWXY/LB1D1

Departure

Time 2026-05-01 14:58
Airport John F. Kennedy International Airport (KJFK)

Arrival

Time N/A
Airport Frankfurt Main Airport (EDDF)
Time Latitude Longitude Altitude Speed Heading
2026-05-01 14:38 40.64109 -73.79205 25 ft 0 kts 327°
2026-05-01 14:49 40.64106 -73.79202 24 ft 2 kts 326°
2026-05-01 14:49 40.64082 -73.79173 26 ft 2 kts 301°
2026-05-01 14:50 40.64077 -73.79139 30 ft 2 kts 242°
2026-05-01 14:50 40.64086 -73.79121 30 ft 0 kts 223°
2026-05-01 14:52 40.64082 -73.79125 28 ft 1 kts 223°
2026-05-01 14:52 40.64075 -73.79133 30 ft 3 kts 223°
2026-05-01 14:52 40.63950 -73.79220 28 ft 15 kts 138°
2026-05-01 14:53 40.63877 -73.79073 28 ft 24 kts 122°
2026-05-01 14:53 40.63780 -73.78857 27 ft 31 kts 120°
2026-05-01 14:53 40.63672 -73.78613 25 ft 32 kts 121°
2026-05-01 14:53 40.63562 -73.78371 30 ft 32 kts 121°
2026-05-01 14:54 40.63447 -73.78121 28 ft 32 kts 120°
2026-05-01 14:54 40.63363 -73.77928 30 ft 14 kts 120°
2026-05-01 14:54 40.63331 -73.77854 30 ft 0 kts 120°
2026-05-01 14:54 40.63327 -73.77844 31 ft 3 kts 120°
2026-05-01 14:55 40.63301 -73.77786 27 ft 13 kts 121°
2026-05-01 14:55 40.63230 -73.77632 27 ft 24 kts 120°
2026-05-01 14:55 40.63142 -73.77432 29 ft 27 kts 121°
2026-05-01 14:55 40.63073 -73.77280 29 ft 15 kts 121°
2026-05-01 14:56 40.63032 -73.77191 29 ft 8 kts 122°
2026-05-01 14:56 40.62994 -73.77117 30 ft 11 kts 128°
2026-05-01 14:56 40.62944 -73.77096 27 ft 5 kts 197°
2026-05-01 14:56 40.62895 -73.77126 30 ft 10 kts 211°
2026-05-01 14:57 40.62833 -73.77195 30 ft 12 kts 245°
2026-05-01 14:57 40.62885 -73.77366 27 ft 30 kts 300°
2026-05-01 14:57 40.63088 -73.77807 30 ft 81 kts 301°
2026-05-01 14:58 40.63455 -73.78622 27 ft 124 kts 301°
2026-05-01 14:58 40.63960 -73.79734 41 ft 157 kts 301°
2026-05-01 14:58 40.64496 -73.80852 795 ft 132 kts 303°
2026-05-01 14:58 40.64974 -73.81858 1271 ft 130 kts 303°
2026-05-01 14:59 40.65533 -73.82869 1508 ft 145 kts 317°
2026-05-01 14:59 40.66565 -73.83191 1682 ft 168 kts
2026-05-01 14:59 40.67724 -73.82642 1957 ft 188 kts 26°
2026-05-01 14:59 40.68884 -73.81618 2217 ft 214 kts 36°
2026-05-01 15:00 40.71351 -73.78874 3159 ft 243 kts 38°
2026-05-01 15:00 40.72580 -73.77518 3476 ft 233 kts 37°
2026-05-01 15:00 40.73875 -73.76149 3690 ft 246 kts 35°
2026-05-01 15:01 40.75263 -73.74755 4431 ft 254 kts 33°
2026-05-01 15:01 40.76684 -73.73366 5266 ft 256 kts 32°
2026-05-01 15:01 40.78149 -73.71962 5992 ft 262 kts 32°
2026-05-01 15:01 40.79626 -73.70557 6673 ft 268 kts 31°
2026-05-01 15:02 40.81155 -73.69102 7444 ft 270 kts 30°
2026-05-01 15:02 40.82184 -73.68119 7977 ft 271 kts 30°
2026-05-01 15:02 40.84227 -73.66162 8974 ft 275 kts 29°
2026-05-01 15:02 40.85783 -73.64670 9756 ft 276 kts 28°
2026-05-01 15:03 40.87321 -73.63190 10425 ft 280 kts 28°
2026-05-01 15:03 40.88939 -73.61645 10708 ft 297 kts 28°
2026-05-01 15:03 40.90673 -73.59994 10976 ft 313 kts 29°
2026-05-01 15:03 40.92451 -73.58294 11240 ft 329 kts 29°
2026-05-01 15:04 40.94382 -73.56439 11526 ft 344 kts 30°
2026-05-01 15:04 40.96358 -73.54533 11790 ft 359 kts 30°
2026-05-01 15:04 40.98407 -73.52552 12040 ft 372 kts 30°
2026-05-01 15:04 41.00513 -73.50511 12446 ft 382 kts 31°
2026-05-01 15:05 41.02673 -73.48414 12881 ft 391 kts 31°
2026-05-01 15:05 41.04861 -73.46287 13362 ft 397 kts 31°
2026-05-01 15:05 41.07106 -73.44104 13868 ft 404 kts 31°
2026-05-01 15:05 41.09398 -73.41878 14356 ft 409 kts 31°
2026-05-01 15:06 41.11703 -73.39636 14895 ft 413 kts 31°
2026-05-01 15:06 41.14001 -73.37400 15435 ft 416 kts 31°
2026-05-01 15:06 41.16347 -73.35117 15947 ft 421 kts 31°
2026-05-01 15:06 41.18728 -73.32798 16503 ft 424 kts 31°
2026-05-01 15:07 41.21115 -73.30474 17078 ft 427 kts 31°
2026-05-01 15:07 41.23520 -73.28128 17600 ft 431 kts 31°
2026-05-01 15:07 41.25953 -73.25753 18116 ft 435 kts 31°
2026-05-01 15:07 41.28406 -73.23357 18573 ft 439 kts 31°
2026-05-01 15:08 41.30874 -73.20942 19012 ft 443 kts 31°
2026-05-01 15:08 41.33337 -73.18532 19446 ft 447 kts 31°
2026-05-01 15:08 41.35834 -73.16025 19877 ft 452 kts 35°
2026-05-01 15:08 41.38103 -73.13068 20369 ft 461 kts 46°
2026-05-01 15:09 41.40041 -73.09610 20844 ft 466 kts 53°
2026-05-01 15:09 41.41806 -73.05973 21252 ft 471 kts 56°
2026-05-01 15:09 41.43472 -73.02249 21665 ft 475 kts 57°
2026-05-01 15:09 41.45131 -72.98402 22076 ft 479 kts 58°
2026-05-01 15:10 41.46782 -72.94538 22448 ft 482 kts 58°
2026-05-01 15:10 41.50158 -72.86709 23255 ft 488 kts 58°
2026-05-01 15:10 41.51868 -72.82785 23603 ft 492 kts 58°
2026-05-01 15:11 41.53576 -72.78882 23922 ft 494 kts 58°
2026-05-01 15:11 41.57073 -72.70901 24564 ft 500 kts 57°
2026-05-01 15:11 41.58835 -72.66873 24890 ft 502 kts 57°
2026-05-01 15:12 41.60599 -72.62836 25215 ft 504 kts 57°
2026-05-01 15:12 41.64137 -72.54717 25770 ft 510 kts 58°
2026-05-01 15:12 41.65941 -72.50625 26050 ft 512 kts 57°
2026-05-01 15:13 41.71509 -72.38319 26985 ft 518 kts 56°
2026-05-01 15:14 41.75248 -72.30040 27520 ft 522 kts 57°
2026-05-01 15:14 41.77129 -72.25853 27788 ft 525 kts 57°
2026-05-01 15:14 41.80897 -72.17432 28276 ft 529 kts 57°
2026-05-01 15:15 41.84659 -72.08994 28854 ft 532 kts 57°
2026-05-01 15:15 41.88458 -72.00447 29536 ft 532 kts 57°
2026-05-01 15:16 41.92217 -71.91969 30149 ft 531 kts 57°
2026-05-01 15:16 41.96303 -71.83726 30697 ft 526 kts 45°
2026-05-01 15:17 42.01379 -71.76675 31219 ft 524 kts 41°
2026-05-01 15:18 42.09227 -71.66488 31908 ft 524 kts 41°
2026-05-01 15:18 42.11850 -71.63081 32138 ft 525 kts 41°
2026-05-01 15:19 42.19700 -71.52792 32840 ft 524 kts 42°
2026-05-01 15:19 42.24929 -71.45892 33274 ft 525 kts 42°
2026-05-01 15:19 42.27547 -71.42431 33503 ft 525 kts 42°
2026-05-01 15:20 42.31879 -71.36695 33890 ft 524 kts 43°
2026-05-01 15:20 42.35323 -71.32126 34147 ft 524 kts 43°
2026-05-01 15:20 42.37930 -71.28664 34314 ft 524 kts 43°
2026-05-01 15:21 42.40544 -71.25189 34489 ft 524 kts 43°
2026-05-01 15:21 42.43141 -71.21732 34665 ft 524 kts 43°
2026-05-01 15:21 42.44859 -71.19443 34765 ft 524 kts 43°
2026-05-01 15:21 42.47466 -71.15965 34964 ft 523 kts 43°
2026-05-01 15:22 42.52648 -71.09040 35311 ft 522 kts 43°
2026-05-01 15:22 42.55228 -71.05586 35453 ft 522 kts 43°
2026-05-01 15:22 42.57810 -71.02124 35604 ft 522 kts 43°
2026-05-01 15:23 42.60399 -70.98649 35747 ft 522 kts 43°
2026-05-01 15:23 42.62980 -70.95181 35931 ft 522 kts 43°
2026-05-01 15:23 42.65528 -70.91752 36088 ft 521 kts 43°
2026-05-01 15:23 42.67997 -70.88122 36213 ft 522 kts 51°
2026-05-01 15:24 42.72173 -70.80000 36435 ft 523 kts 56°
2026-05-01 15:24 42.74138 -70.75910 36558 ft 523 kts 57°
2026-05-01 15:24 42.76098 -70.71762 36687 ft 523 kts 57°
2026-05-01 15:25 42.78063 -70.67582 36844 ft 522 kts 57°
2026-05-01 15:25 42.80033 -70.63387 36886 ft 524 kts 57°
2026-05-01 15:25 42.83976 -70.55001 36869 ft 530 kts 57°
2026-05-01 15:26 42.87991 -70.46471 36874 ft 535 kts 57°
2026-05-01 15:26 42.91997 -70.37945 36883 ft 539 kts 58°
2026-05-01 15:27 42.96041 -70.29313 36878 ft 538 kts 58°
2026-05-01 15:28 43.02069 -70.16396 36869 ft 536 kts 58°
2026-05-01 15:28 43.06064 -70.07804 36878 ft 535 kts 58°
2026-05-01 15:29 43.12034 -69.94916 36881 ft 535 kts 58°
2026-05-01 15:30 43.19966 -69.77706 36871 ft 534 kts 59°
2026-05-01 15:31 43.31800 -69.51841 36876 ft 533 kts 59°
2026-05-01 15:32 43.39657 -69.34541 36862 ft 533 kts 59°
2026-05-01 15:34 43.51341 -69.08624 36856 ft 531 kts 59°